TimeEDT,TemperatureF,Dew PointF,Humidity,Sea Level PressureIn,VisibilityMPH,Wind Direction,Wind SpeedMPH,Gust SpeedMPH,PrecipitationIn,Events,Conditions,WindDirDegrees,DateUTC
12:52 AM,59.0,46.9,64,30.06,10.0,NNW,4.6,-,N/A,,Scattered Clouds,330,2013-10-24 04:52:00
1:52 AM,57.9,46.9,67,30.07,10.0,Variable,4.6,-,N/A,,Partly Cloudy,0,2013-10-24 05:52:00
2:52 AM,59.0,42.1,53,30.07,10.0,NNW,9.2,-,N/A,,Scattered Clouds,340,2013-10-24 06:52:00
3:52 AM,-9999,-9999,N/A,30.09,10.0,NNW,6.9,-,N/A,,Clear,340,2013-10-24 07:52:00
4:52 AM,57.0,42.1,57,30.08,10.0,North,12.7,19.6,N/A,,Clear,350,2013-10-24 08:52:00
5:52 AM,55.9,39.9,55,30.10,10.0,North,8.1,-,N/A,,Clear,350,2013-10-24 09:52:00
6:06 AM,55.9,39.9,55,30.10,10.0,North,11.5,19.6,N/A,,Partly Cloudy,350,2013-10-24 10:06:00
6:52 AM,55.0,42.1,62,30.11,10.0,Variable,6.9,-,N/A,,Mostly Cloudy,0,2013-10-24 10:52:00
7:52 AM,53.1,44.1,71,30.13,10.0,Variable,4.6,-,N/A,,Mostly Cloudy,0,2013-10-24 11:52:00
8:52 AM,52.0,44.1,74,30.16,10.0,NNW,3.5,-,N/A,,Mostly Cloudy,330,2013-10-24 12:52:00
9:52 AM,55.0,46.0,72,30.17,10.0,Variable,5.8,-,N/A,,Mostly Cloudy,0,2013-10-24 13:52:00
10:52 AM,55.4,46.4,72,30.19,10.0,Variable,4.6,-,N/A,,Mostly Cloudy,0,2013-10-24 14:52:00
11:52 AM,55.0,46.0,72,30.19,10.0,North,6.9,-,N/A,,Mostly Cloudy,350,2013-10-24 15:52:00
12:52 PM,66.0,54.0,65,30.18,10.0,North,10.4,16.1,N/A,,Mostly Cloudy,360,2013-10-24 16:52:00
1:52 PM,68.0,41.0,37,30.17,10.0,North,8.1,-,N/A,,Mostly Cloudy,360,2013-10-24 17:52:00
2:52 PM,68.0,46.9,47,30.16,10.0,NNE,4.6,18.4,N/A,,Mostly Cloudy,30,2013-10-24 18:52:00
3:52 PM,66.9,51.1,57,30.15,10.0,NE,6.9,-,N/A,,Mostly Cloudy,40,2013-10-24 19:52:00
4:52 PM,66.0,48.9,54,30.14,10.0,East,5.8,-,N/A,,Mostly Cloudy,80,2013-10-24 20:52:00
5:52 PM,66.0,46.9,50,30.13,10.0,ESE,3.5,-,N/A,,Scattered Clouds,110,2013-10-24 21:52:00
6:52 PM,61.0,51.1,70,30.14,10.0,Calm,Calm,-,N/A,,Scattered Clouds,0,2013-10-24 22:52:00
7:52 PM,59.0,51.1,75,30.15,10.0,Calm,Calm,-,N/A,,Scattered Clouds,0,2013-10-24 23:52:00
8:52 PM,57.0,52.0,83,30.16,10.0,Calm,Calm,-,N/A,,Scattered Clouds,0,2013-10-25 00:52:00
9:52 PM,57.9,54.0,87,30.18,10.0,Calm,Calm,-,N/A,,Partly Cloudy,0,2013-10-25 01:52:00
10:52 PM,57.9,55.0,90,30.18,10.0,SSW,4.6,-,N/A,,Clear,210,2013-10-25 02:52:00
10:57 PM,57.9,55.0,90,30.18,10.0,SSW,4.6,-,N/A,,Clear,210,2013-10-25 02:57:00
11:52 PM,57.9,55.0,90,30.18,10.0,SW,4.6,-,N/A,,Clear,220,2013-10-25 03:52:00